Location: Unspecified
(0.0000°N, 0.0000°E)
Time: 01:09:10
(UTC+00:00)

Okean 3 - Visible Passes

Search period start: 27 May 2019 00:00
Search period end: 06 June 2019 00:00
Orbit: 576 x 602 km, 82.5° (Epoch: 26 May)

Date Brightness Start Highest point End Pass type
(mag) Time Alt. Az. Time Alt. Az. Time Alt. Az.
27 May 5.8 20:06:45 17° N 20:06:45 17° N 20:07:42 10° N visible
28 May 5.4 20:13:15 25° NW 20:13:15 25° NW 20:15:21 10° NNW visible
29 May 5.4 18:43:06 11° E 18:43:06 11° E 18:43:51 10° ENE visible
29 May 5.7 20:19:31 22° W 20:19:31 22° W 20:22:40 10° NW visible
30 May 4.8 18:49:05 17° ESE 18:50:21 20° E 18:53:22 10° NE visible
30 May 6.4 20:25:27 11° WSW 20:27:18 13° W 20:29:20 10° WNW visible
31 May 4.1 18:54:32 10° SSE 18:58:16 33° E 19:02:00 10° NNE visible
01 Jun 3.4 19:02:04 10° S 19:06:10 58° E 19:10:14 10° NNE visible
02 Jun 3.5 19:09:55 10° S 19:14:04 78° W 19:18:13 10° N visible
03 Jun 4.6 19:18:01 10° SSW 19:21:59 43° W 19:25:55 10° NNW visible
04 Jun 5.7 19:26:27 10° SW 19:29:53 25° W 19:33:19 10° NNW visible
05 Jun 6.4 19:35:23 10° WSW 19:37:47 15° W 19:40:11 10° NW visible
